Disclaimer

Please do not use the information listed here in-flight or in-navigation, as they are not provided to us by the airports but are provided by volunteers, so they might be outdated.

Search


Regions


Airport information page

No radio frequency information is available.

Airport informations:
Latitude: 18° 48' 28.49" N
Longitude: 100° 47' 00.31" E
Elevation: 685 feet - 209 meters
Operating hours: From sunrise to sunset (SR-SS)
Operating agency: Civil government, landing fees and diplomatic clearance may be required
Timezone: UTC+7
Fuel: N/A

Runway information:
02/20 - 6562 x 148 feet< - >2000 x 45 meters

Recent METARs:
VTCN 171200Z 01003KT 9999 SCT025 25/20 Q1012 NOSIG
VTCN 171200Z 01003KT 9999 SCT025 25/20 Q1012 NOSIG
VTCN 171200Z 01003KT 9999 SCT025 25/20 Q1012 NOSIG

Airport on the map: